DW1762 Weather Reports


time (UTC)temp
C
wind
direction
speed
KPH
gust
KPH
rain 1hr
cm
rain 24hr
cm
rain mn
cm
humidity
%
barometer
mb
20260510120803 12 5 1.6 4.8 0.00 0.00 0.00 92 1016.6
20260510120403 12 5 1.6 4.8 0.00 0.00 0.00 91 1016.5
20260510120004 12 0 0.0 0.0 0.00 0.00 0.00 93 1016.4
20260510115203 12 0 0.0 0.0 0.00 0.00 0.00 93 1016.3
20260510114404 11 249 0.0 1.6 0.00 0.00 0.00 93 1016.2
20260510114004 11 260 0.0 1.6 0.00 0.00 0.00 93 1016.2
20260510113604 11 0 0.0 0.0 0.00 0.00 0.00 93 1016.2
20260510113204 11 341 0.0 1.6 0.00 0.00 0.00 92 1016.2
20260510112403 11 341 0.0 1.6 0.00 0.00 0.00 92 1016.2
20260510112003 11 0 0.0 0.0 0.00 0.00 0.00 93 1015.9
20260510111604 11 0 0.0 0.0 0.00 0.00 0.00 92 1016.0
20260510111204 11 0 0.0 0.0 0.00 0.00 0.00 92 1016.0
20260510110803 11 0 0.0 0.0 0.00 0.00 0.00 92 1016.0
20260510110404 11 0 0.0 0.0 0.00 0.00 0.00 92 1015.9
20260510110004 11 0 0.0 0.0 0.00 0.00 0.00 92 1015.8
20260510105204 11 339 0.0 1.6 0.00 0.00 0.00 92 1015.8
20260510104803 11 349 0.0 1.6 0.00 0.00 0.00 92 1015.8
20260510104404 11 24 0.0 1.6 0.00 0.00 0.00 92 1015.7
20260510104004 11 24 0.0 1.6 0.00 0.00 0.00 91 1015.6
20260510103602 11 0 0.0 0.0 0.00 0.00 0.00 91 1015.7
20260510103201 11 0 0.0 0.0 0.00 0.00 0.00 91 1015.6
20260510101601 11 0 0.0 0.0 0.00 0.00 0.00 92 1015.2
20260510101202 11 0 0.0 0.0 0.00 0.00 0.00 92 1015.2
20260510100802 11 0 0.0 0.0 0.00 0.00 0.00 91 1015.2
20260510100401 11 0 0.0 0.0 0.00 0.00 0.00 90 1015.1
20260510100002 11 0 0.0 0.0 0.00 0.00 0.00 90 1015.0
20260510095602 11 0 0.0 0.0 0.00 0.00 0.00 90 1014.9
20260510095201 11 0 0.0 0.0 0.00 0.00 0.00 90 1014.9
20260510094801 11 0 0.0 0.0 0.00 0.00 0.00 91 1014.9
20260510094402 11 0 0.0 0.0 0.00 0.00 0.00 91 1014.9
20260510094001 11 0 0.0 0.0 0.00 0.00 0.00 91 1014.9
20260510093601 11 60 0.0 1.6 0.00 0.00 0.00 90 1014.9
20260510093202 11 60 0.0 1.6 0.00 0.00 0.00 89 1014.8
20260510092801 12 61 0.0 1.6 0.00 0.00 0.00 89 1014.7
20260510092401 12 0 0.0 0.0 0.00 0.00 0.00 90 1014.8
20260510092002 12 0 0.0 0.0 0.00 0.00 0.00 90 1014.7
20260510091602 12 0 0.0 0.0 0.00 0.00 0.00 90 1014.7
20260510091201 12 0 0.0 0.0 0.00 0.00 0.00 89 1014.8
20260510090802 12 0 0.0 0.0 0.00 0.00 0.00 89 1014.8
20260510090002 12 0 0.0 0.0 0.00 0.00 0.00 90 1014.9
20260510085602 12 0 0.0 0.0 0.00 0.00 0.00 90 1014.9
20260510084801 11 0 0.0 0.0 0.00 0.00 0.00 91 1014.9
20260510084402 11 0 0.0 0.0 0.00 0.00 0.00 91 1014.9
20260510084002 11 0 0.0 0.0 0.00 0.00 0.00 90 1014.9
20260510083601 11 0 0.0 0.0 0.00 0.00 0.00 91 1014.8
20260510083202 11 0 0.0 0.0 0.00 0.00 0.00 91 1014.8
20260510082802 11 0 0.0 0.0 0.00 0.00 0.00 91 1014.8
20260510082402 11 1 0.0 1.6 0.00 0.00 0.00 91 1014.9
20260510082002 11 358 0.0 3.2 0.00 0.00 0.00 91 1014.9
20260510081601 11 335 1.6 3.2 0.00 0.00 0.00 91 1015.0
20260510081202 11 321 1.6 3.2 0.00 0.00 0.00 92 1014.9
20260510080802 11 327 1.6 3.2 0.00 0.00 0.00 93 1014.7
20260510080402 10 341 0.0 1.6 0.00 0.00 0.00 92 1014.5
20260510075602 11 318 1.6 1.6 0.00 0.00 0.00 90 1014.6
20260510075201 11 317 1.6 1.6 0.00 0.00 0.00 90 1014.3
20260510074802 11 317 1.6 1.6 0.00 0.00 0.00 90 1014.2
20260510074402 11 317 0.0 1.6 0.00 0.00 0.00 89 1014.2
20260510074002 11 0 0.0 0.0 0.00 0.00 0.00 89 1014.1
20260510073602 11 0 0.0 0.0 0.00 0.00 0.00 89 1014.0
20260510072402 11 0 0.0 0.0 0.00 0.00 0.00 89 1013.9
20260510071602 11 0 0.0 0.0 0.00 0.00 0.00 89 1014.0
20260510071202 11 316 0.0 1.6 0.00 0.00 0.00 89 1014.1
20260510070802 11 318 1.6 1.6 0.00 0.00 0.00 90 1014.1
20260510070402 11 322 0.0 1.6 0.00 0.00 0.00 90 1014.1
20260510070002 11 330 0.0 1.6 0.00 0.00 0.00 90 1014.1
20260510065602 11 336 0.0 1.6 0.00 0.00 0.00 90 1014.2
20260510065203 11 336 1.6 1.6 0.00 0.00 0.00 90 1014.2
20260510064802 11 337 1.6 1.6 0.00 0.00 0.00 90 1014.2
20260510064402 11 339 1.6 1.6 0.00 0.00 0.00 89 1014.1
20260510064003 12 341 0.0 1.6 0.00 0.00 0.00 89 1014.1
20260510063602 12 342 0.0 1.6 0.00 0.00 0.00 89 1014.1
20260510063202 12 0 0.0 0.0 0.00 0.00 0.00 89 1014.1
20260510062402 12 343 1.6 1.6 0.00 0.00 0.00 88 1014.2
20260510062002 12 343 1.6 1.6 0.00 0.00 0.00 88 1014.2
20260510061602 12 343 1.6 1.6 0.00 0.00 0.00 86 1014.3
20260510061202 12 343 0.0 1.6 0.00 0.00 0.00 85 1014.3
20260510060802 13 343 0.0 1.6 0.00 0.00 0.00 85 1014.3
20260510060002 12 0 0.0 0.0 0.00 0.00 0.00 85 1014.3
20260510055602 12 0 0.0 0.0 0.00 0.00 0.00 87 1014.4
20260510055202 12 0 0.0 0.0 0.00 0.00 0.00 87 1014.3
20260510054802 12 0 0.0 0.0 0.00 0.00 0.00 86 1014.4
20260510054402 12 0 0.0 0.0 0.00 0.00 0.00 86 1014.4
20260510054003 12 0 0.0 0.0 0.00 0.00 0.00 86 1014.3
20260510053602 12 0 0.0 0.0 0.00 0.00 0.00 87 1014.2
20260510053202 12 0 0.0 0.0 0.00 0.00 0.00 87 1014.2
20260510052802 12 0 0.0 0.0 0.00 0.00 0.00 87 1014.2
20260510052402 13 0 0.0 0.0 0.00 0.00 0.00 87 1014.2
20260510051603 13 343 0.0 1.6 0.00 0.00 0.00 86 1014.1
20260510051202 13 343 0.0 1.6 0.00 0.00 0.00 87 1014.0
20260510050802 13 343 0.0 1.6 0.00 0.00 0.00 86 1014.0
20260510050403 13 342 0.0 1.6 0.00 0.00 0.00 86 1014.2
20260510050004 13 0 0.0 0.0 0.00 0.00 0.00 86 1014.3
20260510045602 13 0 0.0 0.0 0.00 0.00 0.00 85 1014.1
20260510045203 13 0 0.0 0.0 0.00 0.00 0.00 84 1014.1
20260510044802 13 0 0.0 0.0 0.00 0.00 0.00 85 1014.0
20260510044402 13 0 0.0 0.0 0.00 0.00 0.00 85 1013.9
20260510043602 14 110 1.6 1.6 0.00 0.00 0.00 82 1013.8
20260510042802 15 112 0.0 1.6 0.00 0.00 0.00 76 1013.7
20260510042003 15 0 0.0 0.0 0.00 0.00 0.00 73 1013.7
20260510041602 15 0 0.0 0.0 0.00 0.00 0.00 73 1013.7
20260510041202 15 0 0.0 0.0 0.00 0.00 0.00 73 1013.6
20260510040802 15 0 0.0 0.0 0.00 0.00 0.00 73 1013.7
20260510040402 15 0 0.0 0.0 0.00 0.00 0.00 76 1013.7
20260510035603 15 112 0.0 1.6 0.00 0.00 0.00 76 1013.7
20260510035202 15 112 0.0 3.2 0.00 0.00 0.00 81 1013.7
20260510034802 15 112 0.0 3.2 0.00 0.00 0.00 80 1013.7
20260510034402 15 0 0.0 0.0 0.00 0.00 0.00 80 1013.5
20260510034002 15 0 0.0 0.0 0.00 0.00 0.00 79 1013.5
20260510033202 15 0 0.0 0.0 0.00 0.00 0.00 78 1013.3
20260510032803 15 0 0.0 0.0 0.00 0.00 0.00 78 1013.4
20260510032402 16 0 0.0 0.0 0.00 0.00 0.00 78 1013.3
20260510032003 16 232 0.0 14.5 0.00 0.00 0.00 77 1013.3
20260510031603 16 232 0.0 14.5 0.00 0.00 0.00 77 1013.3
20260510031202 16 232 0.0 14.5 0.00 0.00 0.00 77 1013.2
20260510024403 17 149 1.6 1.6 0.00 0.00 0.00 74 1012.7
20260510024003 17 139 1.6 1.6 0.00 0.00 0.00 73 1012.6
20260510023603 17 139 0.0 1.6 0.00 0.00 0.00 72 1012.6
20260510023202 18 139 0.0 1.6 0.00 0.00 0.00 71 1012.5
20260510022002 18 0 0.0 0.0 0.00 0.00 0.00 61 1012.3
20260510021602 18 0 0.0 0.0 0.00 0.00 0.00 60 1012.2
20260510021202 19 0 0.0 0.0 0.00 0.00 0.00 61 1012.2
20260510020802 19 0 0.0 0.0 0.00 0.00 0.00 59 1012.1
20260510020402 20 0 0.0 0.0 0.00 0.00 0.00 59 1012.0
20260510020006 20 0 0.0 0.0 0.00 0.00 0.00 57 1011.9
20260510015603 20 0 0.0 0.0 0.00 0.00 0.00 56 1012.0
20260510015203 20 0 0.0 0.0 0.00 0.00 0.00 55 1011.9
20260510014403 21 0 0.0 0.0 0.00 0.00 0.00 53 1011.8
20260510013603 21 0 0.0 0.0 0.00 0.00 0.00 52 1011.7
20260510013203 21 0 0.0 0.0 0.00 0.00 0.00 53 1011.6
20260510012402 21 0 0.0 0.0 0.00 0.00 0.00 51 1011.6
20260510012002 21 0 0.0 0.0 0.00 0.00 0.00 51 1011.6
20260510011602 22 0 0.0 0.0 0.00 0.00 0.00 51 1011.6
20260510011202 22 0 0.0 0.0 0.00 0.00 0.00 49 1011.6
20260510010803 22 0 0.0 0.0 0.00 0.00 0.00 49 1011.5
20260510010403 22 0 0.0 0.0 0.00 0.00 0.00 49 1011.5
20260510010002 22 0 0.0 0.0 0.00 0.00 0.00 48 1011.5
20260510005602 23 0 0.0 0.0 0.00 0.00 0.00 48 1011.4
20260510005203 23 0 0.0 0.0 0.00 0.00 0.00 47 1011.4
20260510004803 23 0 0.0 0.0 0.00 0.00 0.00 46 1011.3
20260510004403 24 0 0.0 0.0 0.00 0.00 0.00 45 1011.2
20260510004004 24 0 0.0 0.0 0.00 0.00 0.00 45 1011.2
20260510003603 25 0 0.0 0.0 0.00 0.00 0.00 44 1011.1
20260510003203 25 0 0.0 0.0 0.00 0.00 0.00 43 1011.2
20260510002802 26 0 0.0 0.0 0.00 0.00 0.00 42 1011.1
20260510002402 26 132 0.0 1.6 0.00 0.00 0.00 43 1011.2
20260510002003 26 136 0.0 1.6 0.00 0.00 0.00 41 1011.1
20260510001603 27 137 0.0 1.6 0.00 0.00 0.00 40 1011.1
20260510001203 27 131 0.0 1.6 0.00 0.00 0.00 40 1011.0
20260510000804 27 132 0.0 1.6 0.00 0.00 0.00 39 1011.1
20260510000403 27 137 0.0 3.2 0.00 0.00 0.00 39 1011.1
20260510000003 27 143 1.6 3.2 0.00 0.00 0.00 41 1011.0
20260509235602 27 140 1.6 6.4 0.00 0.00 0.00 40 1011.0
20260509235203 27 146 0.0 6.4 0.00 0.00 0.00 38 1011.0
20260509234804 27 146 0.0 4.8 0.00 0.00 0.00 40 1011.1
20260509234403 27 136 1.6 4.8 0.00 0.00 0.00 41 1011.1
20260509234003 27 146 1.6 4.8 0.00 0.00 0.00 39 1011.1
20260509233603 27 176 1.6 9.7 0.00 0.00 0.00 38 1010.9
20260509233203 27 189 3.2 11.3 0.00 0.00 0.00 39 1011.0
20260509232803 27 179 3.2 11.3 0.00 0.00 0.00 39 1010.9
20260509232403 27 176 1.6 11.3 0.00 0.00 0.00 38 1010.9
20260509232003 27 168 1.6 9.7 0.00 0.00 0.00 38 1010.9
20260509231602 27 178 0.0 6.4 0.00 0.00 0.00 39 1010.9
20260509231202 28 184 0.0 6.4 0.00 0.00 0.00 40 1010.9
20260509230805 28 157 1.6 6.4 0.00 0.00 0.00 39 1010.9
20260509230004 28 134 1.6 4.8 0.00 0.00 0.00 39 1011.0
20260509225603 28 131 3.2 6.4 0.00 0.00 0.00 39 1011.0
20260509225203 28 130 3.2 6.4 0.00 0.00 0.00 39 1010.9
20260509224803 28 132 1.6 4.8 0.00 0.00 0.00 38 1011.0
20260509224403 28 129 1.6 4.8 0.00 0.00 0.00 39 1010.9
20260509223608 27 146 0.0 4.8 0.00 0.00 0.00 38 1010.8
20260509223203 27 191 1.6 11.3 0.00 0.00 0.00 43 1010.8
20260509222802 27 198 1.6 11.3 0.00 0.00 0.00 41 1010.8
20260509222003 27 218 0.0 1.6 0.00 0.00 0.00 35 1010.8
20260509221603 27 213 0.0 3.2 0.00 0.00 0.00 35 1010.6
20260509221203 28 211 0.0 3.2 0.00 0.00 0.00 35 1010.7
20260509220802 28 201 0.0 3.2 0.00 0.00 0.00 36 1010.7
20260509220422 28 193 1.6 6.4 0.00 0.00 0.00 34 1010.6
20260509220004 28 192 1.6 6.4 0.00 0.00 0.00 32 1010.5
20260509215607 28 191 3.2 11.3 0.00 0.00 0.00 33 1010.6
20260509215204 28 195 3.2 11.3 0.00 0.00 0.00 32 1010.5
20260509214806 28 203 1.6 11.3 0.00 0.00 0.00 36 1010.6
20260509214404 28 225 1.6 4.8 0.00 0.00 0.00 34 1010.6
20260509214003 28 228 1.6 4.8 0.00 0.00 0.00 33 1010.5
20260509213602 28 221 1.6 4.8 0.00 0.00 0.00 35 1010.6
20260509213203 27 227 1.6 3.2 0.00 0.00 0.00 40 1010.7
20260509212803 27 237 0.0 4.8 0.00 0.00 0.00 37 1010.7
20260509212403 27 246 1.6 4.8 0.00 0.00 0.00 35 1010.7
20260509212003 27 245 1.6 6.4 0.00 0.00 0.00 36 1010.7
20260509211603 28 242 0.0 6.4 0.00 0.00 0.00 33 1010.7
20260509211203 28 216 0.0 6.4 0.00 0.00 0.00 32 1010.7
20260509210403 28 224 3.2 6.4 0.00 0.00 0.00 34 1010.8
20260509210003 28 211 3.2 6.4 0.00 0.00 0.00 31 1010.8
20260509205603 28 186 3.2 6.4 0.00 0.00 0.00 35 1010.9
20260509205203 28 174 3.2 6.4 0.00 0.00 0.00 30 1010.9
20260509204804 28 155 1.6 6.4 0.00 0.00 0.00 34 1011.0
20260509204403 28 186 1.6 6.4 0.00 0.00 0.00 32 1011.0
20260509203603 27 209 0.0 3.2 0.00 0.00 0.00 35 1011.0
20260509203203 27 73 0.0 1.6 0.00 0.00 0.00 36 1011.1
20260509202803 27 60 0.0 3.2 0.00 0.00 0.00 31 1011.1
20260509202403 27 4 1.6 9.7 0.00 0.00 0.00 31 1011.2
20260509202003 27 4 1.6 11.3 0.00 0.00 0.00 35 1011.2
20260509201603 28 323 3.2 11.3 0.00 0.00 0.00 31 1011.3
20260509200803 28 253 3.2 11.3 0.00 0.00 0.00 34 1011.3
20260509200403 28 230 3.2 9.7 0.00 0.00 0.00 34 1011.4
20260509200003 28 302 1.6 6.4 0.00 0.00 0.00 31 1011.4
20260509195603 28 12 1.6 6.4 0.00 0.00 0.00 35 1011.5
20260509194803 28 231 3.2 9.7 0.00 0.00 0.00 32 1011.5
20260509194402 28 240 1.6 9.7 0.00 0.00 0.00 35 1011.6
20260509194004 28 250 0.0 4.8 0.00 0.00 0.00 36 1011.6
20260509193603 28 249 0.0 4.8 0.00 0.00 0.00 35 1011.6
20260509193203 27 247 0.0 4.8 0.00 0.00 0.00 36 1011.6
20260509192803 27 264 0.0 4.8 0.00 0.00 0.00 36 1011.6
20260509192403 27 261 1.6 4.8 0.00 0.00 0.00 34 1011.7
20260509192004 28 248 1.6 4.8 0.00 0.00 0.00 37 1011.7
20260509191603 27 267 1.6 4.8 0.00 0.00 0.00 37 1011.7
20260509190803 28 294 1.6 11.3 0.00 0.00 0.00 34 1011.7
20260509190403 28 272 3.2 11.3 0.00 0.00 0.00 37 1011.7
20260509190003 28 274 3.2 11.3 0.00 0.00 0.00 33 1011.6
20260509185603 28 265 1.6 9.7 0.00 0.00 0.00 32 1011.7
20260509185203 28 255 1.6 9.7 0.00 0.00 0.00 33 1011.6
20260509184403 28 270 0.0 6.4 0.00 0.00 0.00 31 1011.8
20260509184005 27 274 1.6 4.8 0.00 0.00 0.00 35 1011.6
20260509183603 27 274 1.6 4.8 0.00 0.00 0.00 34 1011.6
20260509183203 27 279 1.6 6.4 0.00 0.00 0.00 34 1011.7
20260509182803 27 251 1.6 9.7 0.00 0.00 0.00 32 1011.7
20260509182003 28 263 1.6 9.7 0.00 0.00 0.00 34 1011.6
20260509181603 28 287 1.6 6.4 0.00 0.00 0.00 33 1011.7
20260509181203 28 301 0.0 6.4 0.00 0.00 0.00 33 1011.6
20260509180803 28 12 0.0 1.6 0.00 0.00 0.00 32 1011.7
20260509180403 28 355 0.0 4.8 0.00 0.00 0.00 35 1011.7
20260509180004 27 313 1.6 6.4 0.00 0.00 0.00 32 1011.8
20260509174803 27 284 1.6 11.3 0.00 0.00 0.00 35 1011.8
20260509174403 27 293 1.6 9.7 0.00 0.00 0.00 35 1011.8
20260509174003 27 291 1.6 9.7 0.00 0.00 0.00 35 1011.9
20260509173603 27 277 1.6 9.7 0.00 0.00 0.00 39 1011.9
20260509172804 27 236 1.6 12.9 0.00 0.00 0.00 41 1011.9
20260509172404 27 198 1.6 12.9 0.00 0.00 0.00 39 1012.0
20260509171603 27 212 1.6 11.3 0.00 0.00 0.00 42 1012.0
20260509171203 27 211 1.6 6.4 0.00 0.00 0.00 45 1012.0
20260509170803 26 200 1.6 9.7 0.00 0.00 0.00 41 1012.1
20260509170403 26 194 1.6 9.7 0.00 0.00 0.00 42 1012.1
20260509165603 26 207 1.6 6.4 0.00 0.00 0.00 46 1012.1
20260509165207 26 214 1.6 9.7 0.00 0.00 0.00 47 1012.1
20260509164802 25 220 1.6 9.7 0.00 0.00 0.00 45 1012.1
20260509164403 25 229 1.6 4.8 0.00 0.00 0.00 46 1012.1
20260509164003 25 213 1.6 9.7 0.00 0.00 0.00 49 1012.1
20260509163603 25 194 1.6 9.7 0.00 0.00 0.00 50 1012.2
20260509163204 25 208 1.6 6.4 0.00 0.00 0.00 54 1012.1
20260509162803 25 222 1.6 6.4 0.00 0.00 0.00 53 1012.1
20260509162403 25 216 1.6 6.4 0.00 0.00 0.00 57 1012.2
20260509162004 24 205 0.0 4.8 0.00 0.00 0.00 57 1012.2
20260509161604 24 251 1.6 4.8 0.00 0.00 0.00 58 1012.2
20260509161203 23 249 1.6 4.8 0.00 0.00 0.00 57 1012.2
20260509160803 23 234 1.6 6.4 0.00 0.00 0.00 61 1012.3
20260509160403 23 234 1.6 6.4 0.00 0.00 0.00 59 1012.3
20260509160004 23 259 1.6 11.3 0.00 0.00 0.00 60 1012.3
20260509155604 23 276 1.6 11.3 0.00 0.00 0.00 60 1012.3
20260509155203 22 263 0.0 3.2 0.00 0.00 0.00 63 1012.2
20260509154803 22 272 0.0 3.2 0.00 0.00 0.00 61 1012.2
20260509154403 22 267 0.0 4.8 0.00 0.00 0.00 66 1012.3
20260509154003 22 276 1.6 4.8 0.00 0.00 0.00 66 1012.2
20260509153603 21 282 1.6 4.8 0.00 0.00 0.00 67 1012.2
20260509153203 21 289 1.6 4.8 0.00 0.00 0.00 69 1012.2
20260509152403 21 285 1.6 6.4 0.00 0.00 0.00 69 1012.2
20260509152004 20 286 1.6 6.4 0.00 0.00 0.00 71 1012.2
20260509151604 20 272 1.6 6.4 0.00 0.00 0.00 72 1012.1
20260509150803 20 261 0.0 4.8 0.00 0.00 0.00 74 1012.2
20260509150403 20 269 1.6 4.8 0.00 0.00 0.00 75 1012.1
20260509150003 19 267 1.6 4.8 0.00 0.00 0.00 77 1012.2
20260509145603 19 263 1.6 4.8 0.00 0.00 0.00 77 1012.2
20260509144803 18 275 1.6 4.8 0.00 0.00 0.00 81 1012.2
20260509144404 18 279 1.6 4.8 0.00 0.00 0.00 80 1012.2
20260509144004 17 279 1.6 4.8 0.00 0.00 0.00 81 1012.3
20260509143603 17 277 1.6 4.8 0.00 0.00 0.00 82 1012.4
20260509143203 17 282 1.6 9.7 0.00 0.00 0.00 82 1012.3
20260509142403 17 282 1.6 9.7 0.00 0.00 0.00 84 1012.2
20260509142003 17 266 1.6 6.4 0.00 0.00 0.00 86 1012.2
20260509141606 16 262 1.6 6.4 0.00 0.00 0.00 87 1012.1
20260509141203 16 264 1.6 6.4 0.00 0.00 0.00 86 1012.0
20260509140403 16 257 1.6 6.4 0.00 0.00 0.00 87 1012.0
20260509140003 16 252 1.6 6.4 0.00 0.00 0.00 89 1011.9
20260509135603 16 248 1.6 4.8 0.00 0.00 0.00 88 1011.8
20260509135203 16 231 1.6 4.8 0.00 0.00 0.00 90 1011.8
20260509134805 15 229 1.6 4.8 0.00 0.00 0.00 91 1011.8
20260509134403 15 232 0.0 4.8 0.00 0.00 0.00 91 1011.8
20260509134003 15 262 0.0 3.2 0.00 0.00 0.00 93 1011.8
20260509133603 15 257 0.0 1.6 0.00 0.00 0.00 96 1011.7
20260509133203 14 0 0.0 0.0 0.00 0.00 0.00 96 1011.7
20260509132403 13 0 0.0 0.0 0.00 0.00 0.00 98 1011.6
20260509132003 13 0 0.0 0.0 0.00 0.00 0.00 98 1011.6
20260509131603 13 0 0.0 0.0 0.00 0.00 0.00 98 1011.5
20260509131203 13 0 0.0 0.0 0.00 0.00 0.00 98 1011.6
20260509130003 12 0 0.0 0.0 0.00 0.00 0.00 98 1011.5
20260509125603 12 288 0.0 1.6 0.00 0.00 0.00 98 1011.5
20260509125203 12 288 0.0 1.6 0.00 0.00 0.00 98 1011.5
20260509124404 11 0 0.0 0.0 0.00 0.00 0.00 98 1011.3
20260509124004 11 0 0.0 0.0 0.00 0.00 0.00 98 1011.3
20260509123604 11 0 0.0 0.0 0.00 0.00 0.00 98 1011.3
20260509123204 10 0 0.0 0.0 0.00 0.00 0.00 98 1011.3
20260509122804 10 0 0.0 0.0 0.00 0.00 0.00 98 1011.3
20260509122404 10 0 0.0 0.0 0.00 0.00 0.00 98 1011.3
20260509122004 10 0 0.0 0.0 0.00 0.00 0.00 98 1011.2
20260509121603 9 0 0.0 0.0 0.00 0.00 0.00 98 1011.1
20260509121203 9 0 0.0 0.0 0.00 0.00 0.00 98 1011.1